Vancouver, British Columbia

5:47 AM PDT on May 24, 2017 (GMT -0700)
Vancouver International Airport

Weather History for CYVR - November, 2012

Change the Weather History Date:

Sunday, November 25, 2012

  Actual Average Record
Temperature  
Mean Temperature 40 °F -  
Max Temperature 46 °F 44 °F 50 °F (1998)
Min Temperature 35 °F 34 °F 24 °F (2015)
Degree Days  
Heating Degree Days 24    
Moisture  
Dew Point 36 °F    
Average Humidity 86    
Maximum Humidity 100    
Minimum Humidity 71    
Precipitation  
Precipitation 0.00 in 0.23 in - ()
Sea Level Pressure  
Sea Level Pressure 30.33 in    
Wind  
Wind Speed 3 mph ()    
Max Wind Speed 10 mph    
Max Gust Speed -    
Visibility 16.5 miles    
Events      
Averages and records for this station are not official NWS values.
T = Trace of Precipitation, MM = Missing Value Source: Averaged Metar Reports

Daily Weather History Graph

Daily Weather History Graph

Search for Another Location

Airport or City:

Trip Planner

Search our weather history database for the weather conditions in past years. The results will help you decide how hot, cold, wet, or windy it might be!

Date:

Astronomy

Nov. 25, 2012 Rise Set
Actual Time 7:38 AM PST 4:20 PM PST
Civil Twilight 7:02 AM PST 4:56 PM PST
Nautical Twilight 6:23 AM PST 5:36 PM PST
Astronomical Twilight 5:45 AM PST 6:14 PM PST
Moon 2:49 PM PST (11/25) 4:48 AM PST (11/25)
Length of Visible Light 9h 53m
Length of Day
8h 41m
Waxing Gibbous, 93% of the Moon is Illuminated
Nov 25
Waxing Gibbous
Nov 28
Full
Dec 6
Last Quarter
Dec 13
New
Dec 19
First Quarter

Hourly Weather History & Observations

Time (PST) Temp. Windchill Dew Point Humidity Pressure Visibility Wind Dir Wind Speed Gust Speed Precip Events Conditions
12:00 AM 37.4 °F 33.8 °F 35.6 °F 93% 30.28 in 15.0 mi East 4.6 mph - N/A   Mostly Cloudy
12:24 AM 37.4 °F 34.9 °F - N/A% - 15.0 mi East 3.5 mph - N/A   Overcast
1:00 AM 37.4 °F - 37.4 °F 100% 30.29 in 15.0 mi ESE 2.3 mph - N/A   Mostly Cloudy
2:00 AM 39.2 °F 37.0 °F 37.4 °F 93% 30.30 in 15.0 mi ESE 3.5 mph - N/A   Overcast
2:19 AM 39.2 °F 37.0 °F - N/A% - 15.0 mi East 3.5 mph - N/A   Overcast
3:00 AM 41.0 °F - 39.2 °F 93% 30.31 in 15.0 mi SSW 2.3 mph - N/A   Overcast
4:00 AM 40 °F - 38 °F 92% 30.32 in 15 mi East 2.3 mph - -   Overcast
4:00 AM 41.0 °F - 39.2 °F 93% 30.32 in 15.0 mi East 2.3 mph - N/A   Overcast
5:00 AM 41.0 °F 39.0 °F 39.2 °F 93% 30.31 in 15.0 mi ESE 3.5 mph - N/A   Overcast
6:00 AM 41.0 °F - 39.2 °F 93% 30.32 in 15.0 mi ESE 2.3 mph - N/A   Overcast
7:00 AM 39.2 °F 35.9 °F 37.4 °F 93% 30.32 in 15.0 mi NNE 4.6 mph - N/A   Mostly Cloudy
8:00 AM 39.2 °F 37.0 °F 35.6 °F 87% 30.34 in 15.0 mi East 3.5 mph - N/A   Partly Cloudy
8:52 AM 41.0 °F 39.0 °F - N/A% - 15.0 mi ESE 3.5 mph - N/A   Scattered Clouds
9:00 AM 41.0 °F 39.0 °F 39.2 °F 93% 30.36 in 15.0 mi SSE 3.5 mph - N/A   Scattered Clouds
10:00 AM 43 °F - 38 °F 78% 30.37 in 15 mi Calm Calm - -   Partly Cloudy
10:00 AM 42.8 °F - 39.2 °F 87% 30.37 in 15.0 mi Calm Calm - N/A   Scattered Clouds
11:00 AM 42.8 °F 41.1 °F 39.2 °F 87% 30.38 in 15.0 mi West 3.5 mph - N/A   Scattered Clouds
12:00 PM 44.6 °F 43.1 °F 39.2 °F 81% 30.37 in 15.0 mi WNW 3.5 mph - N/A   Scattered Clouds
1:00 PM 44.6 °F 41.4 °F 37.4 °F 76% 30.36 in 15.0 mi WNW 5.8 mph - N/A   Mostly Cloudy
2:00 PM 44.6 °F 39.7 °F 35.6 °F 71% 30.36 in 15.0 mi WNW 9.2 mph - N/A   Scattered Clouds
3:00 PM 42.8 °F 37.5 °F 37.4 °F 81% 30.36 in 15.0 mi WNW 9.2 mph - N/A   Partly Cloudy
4:00 PM 40 °F - 35 °F 77% 30.35 in 19 mi NW 6.9 mph - -   Scattered Clouds
4:00 PM 39.2 °F 34.2 °F 35.6 °F 87% 30.35 in 20.0 mi NW 6.9 mph - N/A   Partly Cloudy
5:00 PM 39.2 °F 34.2 °F 33.8 °F 81% 30.34 in 20.0 mi NW 6.9 mph - N/A   Partly Cloudy
6:00 PM 41.0 °F 34.7 °F 33.8 °F 76% 30.32 in 20.0 mi NW 10.4 mph - N/A   Partly Cloudy
7:00 PM 39.2 °F 35.0 °F 32.0 °F 75% 30.33 in 20.0 mi NNW 5.8 mph - N/A   Partly Cloudy
8:00 PM 37.4 °F 34.9 °F 32.0 °F 81% 30.32 in 20.0 mi NNE 3.5 mph - N/A   Partly Cloudy
9:00 PM 37.4 °F - 32.0 °F 81% 30.31 in 20.0 mi Calm Calm - N/A   Partly Cloudy
10:00 PM 36 °F - 32 °F 80% 30.30 in 19 mi East 3.5 mph - -   Clear
10:00 PM 35.6 °F 32.8 °F 32.0 °F 87% 30.30 in 20.0 mi East 3.5 mph - N/A   Partly Cloudy
11:00 PM 35.6 °F 32.8 °F 32.0 °F 87% 30.29 in 20.0 mi North 3.5 mph - N/A   Partly Cloudy